Location: Unspecified
(0.0000°N, 0.0000°E)
Time: 20:49:05
(UTC+00:00)

Transit 2A - All Passes

Search period start: 25 May 2016 00:00
Search period end: 04 June 2016 00:00
Orbit: 593 x 967 km, 66.7° (Epoch: 25 May)

Date Brightness Start Highest point End Pass type
(mag) Time Alt. Az. Time Alt. Az. Time Alt. Az.
25 May - 04:50:36 10° SE 04:52:56 14° ESE 04:55:20 10° ENE visible
25 May - 06:32:03 10° SW 06:35:45 25° WNW 06:39:41 10° NNW daylight
25 May - 17:22:17 10° N 17:28:26 59° ENE 17:34:10 10° SSE daylight
25 May - 19:09:49 10° W 19:11:17 11° WSW 19:12:44 10° WSW visible
26 May - 05:57:32 10° SW 06:01:48 44° WNW 06:06:24 10° N daylight
26 May - 16:48:47 10° N 16:54:29 37° ENE 16:59:50 10° SE daylight
26 May - 18:33:17 10° WNW 18:37:24 19° WSW 18:41:21 10° SSW visible
27 May - 05:23:26 10° SSW 05:27:52 83° WNW 05:32:42 10° NNE visible
27 May - 16:15:41 10° NNE 16:20:30 23° ENE 16:25:05 10° ESE daylight
27 May - 17:58:14 10° NW 18:03:32 30° WSW 18:08:30 10° SSW daylight
28 May - 04:49:39 10° S 04:53:59 53° ESE 04:58:40 10° NNE visible
28 May - 15:43:19 10° NE 15:46:30 14° ENE 15:49:34 10° E daylight
28 May - 17:23:43 10° NW 17:29:39 48° WSW 17:35:11 10° S daylight
29 May - 04:16:16 10° S 04:20:08 29° ESE 04:24:15 10° NE visible
29 May - 06:01:09 10° W 06:03:07 12° WNW 06:05:08 10° NW daylight
29 May - 16:49:32 10° NNW 16:55:46 78° WSW 17:01:32 10° SSE daylight
30 May - 03:43:26 10° SSE 03:46:16 17° ESE 03:49:14 10° ENE visible
30 May - 05:25:36 10° WSW 05:29:07 22° WNW 05:32:52 10° NNW visible
30 May - 16:15:40 10° NNW 16:21:51 67° ENE 16:27:34 10° SSE daylight
31 May - 04:50:57 10° SW 04:55:09 38° WNW 04:59:41 10° N visible
31 May - 15:42:06 10° N 15:47:54 41° ENE 15:53:19 10° SE daylight
31 May - 17:27:12 10° WNW 17:30:47 16° WSW 17:34:15 10° SW daylight
01 Jun - 04:16:45 10° SSW 04:21:13 71° WNW 04:26:05 10° NNE visible
01 Jun - 15:08:53 10° NNE 15:13:56 26° ENE 15:18:43 10° ESE daylight
01 Jun - 16:51:56 10° NW 16:56:55 26° WSW 17:01:38 10° SSW daylight
02 Jun - 03:42:54 10° S 03:47:19 63° ESE 03:52:08 10° NNE visible
02 Jun - 14:36:16 10° NNE 14:39:56 16° ENE 14:43:27 10° ESE daylight
02 Jun - 16:17:17 10° NW 16:23:03 42° WSW 16:28:25 10° S daylight
03 Jun - 03:09:23 10° S 03:13:27 34° ESE 03:17:50 10° NE visible
03 Jun - 04:55:17 10° W 04:56:30 11° WNW 04:57:44 10° NW visible
03 Jun - 15:43:02 10° NNW 15:49:11 69° WSW 15:54:50 10° SSE daylight
